This is the latest recevied weather packets stored in our database for station/object KF0PEC-15. If no packets are shown the sender has not sent any weather packets the latest 10 day(s).
| Time | Temp. | Humidity | Pressure | Rain* | Wind** | Luminosity | Snow |
|---|---|---|---|---|---|---|---|
| 1777894745 | 5° C | 69% | 1015.6 hPa | 0 mm | - | 0 W/m² | - |
| 1777894210 | 5° C | 66% | 1015.4 hPa | 0 mm | - | 0 W/m² | - |
| 1777893715 | 5° C | 65% | 1015.6 hPa | 0 mm | - | 0 W/m² | - |
| 1777893220 | 5° C | 65% | 1015.6 hPa | 0 mm | - | 0 W/m² | - |
| 1777892688 | 5° C | 67% | 1015.9 hPa | 0 mm | - | 0 W/m² | - |
| 1777892195 | 5° C | 67% | 1015.8 hPa | 0 mm | - | 0 W/m² | - |
| 1777891655 | 5° C | 67% | 1015.9 hPa | 0 mm | - | 0 W/m² | - |
| 1777891088 | 5° C | 65% | 1015.8 hPa | 0 mm | - | 0 W/m² | - |
| 1777890585 | 5° C | 65% | 1015.9 hPa | 0 mm | - | 0 W/m² | - |
| 1777890040 | 5° C | 65% | 1016 hPa | 0 mm | - | 0 W/m² | - |
| 1777889500 | 5.56° C | 64% | 1015.8 hPa | 0 mm | - | 0 W/m² | - |
| 1777888960 | 5.56° C | 64% | 1015.9 hPa | 0 mm | - | 0 W/m² | - |
| 1777888455 | 5° C | 63% | 1016 hPa | 0 mm | - | 0 W/m² | - |
| 1777887935 | 5.56° C | 62% | 1015.8 hPa | 0 mm | - | 0 W/m² | - |
| 1777887355 | 5.56° C | 63% | 1015.9 hPa | 0 mm | - | 0 W/m² | - |
| 1777886760 | 5.56° C | 63% | 1016 hPa | 0 mm | - | 0 W/m² | - |
| 1777886185 | 5.56° C | 63% | 1015.9 hPa | 0 mm | - | 0 W/m² | - |
| 1777885585 | 6.11° C | 61% | 1015.5 hPa | 0 mm | - | 0 W/m² | - |
| 1777885055 | 6.11° C | 60% | 1015.4 hPa | 0 mm | - | 0 W/m² | - |
| 1777884477 | 6.67° C | 59% | 1015.1 hPa | 0 mm | - | 0 W/m² | - |
| 1777883937 | 6.67° C | 59% | 1015.2 hPa | 0 mm | - | 0 W/m² | - |
| 1777883369 | 6.67° C | 58% | 1015.5 hPa | 0 mm | - | 0 W/m² | - |
| 1777882773 | 6.67° C | 59% | 1015.6 hPa | 0 mm | - | 0 W/m² | - |
| 1777882195 | 6.67° C | 58% | 1015.6 hPa | 0 mm | - | 0 W/m² | - |
| 1777881715 | 6.67° C | 58% | 1015.6 hPa | 0 mm | - | 0 W/m² | - |
* Rain latest hour (hover to see other rain measurements)
** Current wind speed in m/s (hover to see current wind gust speed)